CZ-2C R/B (31114 NORAD) Tracking and Keplerian Element Data

This shows tracking and keplerian element data for the satellite.

Feedback or suggestion? Click here.




ElementValue
Catalog31114
NameCZ-2C R/B
Epoch Orbit92310
Epoch Day34.8099224
Epoch Year2025
RAAN163.8134
Inclination98.3589
Eccentricity0.0059388
Argument of Perigee15.4333
Mean Anonmoly344.8638
Mean Motion14.20041649
Decay Rate2.92E-06
L11 31114U 07010B 25034.80992240 .00000292 00000+0 15374-3 0 9991
L22 31114 98.3589 163.8134 0059388 15.4333 344.8638 14.20041649923104



Live tracking and technical data element details for CZ-2C R/B (NORAD 31114). CZ-2C R/B can be tracked NOW for your location showing map with azimuth and elevation plus other details from your city location.







IsCatalogInMostPopularTable: catalog: 31114, numindb: 411
Update: records affected: 1



GetName: 31114 CZ-2C R/B

Hit Count: updated at: Thu, 22 May 2025 03:51:14 GMT